Погода в Мариуполе

Погода в Мариуполе : погода сейчас, прогноз погоды и архив. Всё, что Вы хотите узнать о погоде в Мариуполе!

Поиск расширенной информации на нашем сайте:

Другие новости

Новости СМИ2

Главная страница сайта

Новости сайта

02.10.2013

Напоминаем, что на нашем новом сайте вы можете получить высокодетализированные прогнозы погоды по пунктам России, СНГ и мира (включающие важные для авиации метеовеличины, такие как направление и скорость ветра, видимость, явления погоды, количество и форма облачности, нижняя и верхняя граница облачности), а также ознакомиться с разнообразными материалами по авиационной метеорологии и подборкой полезных ссылок на эту тему.

Сайт Метеоцентр.Азия посвящён разработке технологий оптимизации авиаметеорологического обслуживания, включая проектирование и перспективное создание нескольких автоматизированных авиаметеорологических систем:
- система выпуска высокодетальных прогностических карт явлений погоды для нижнего воздушного пространства по России и ближнему зарубежью;
- система верификации прогнозов TAF (выпускаемых синоптиками официальных АМСГ РФ и ближнего зарубежья) и AUTOTAF (выпускаемых сайтом Метеоцентр.Азия) - выявление ошибок, онлайн-сопоставление с фактической погодой METAR, автоматическое внесение коррективов в прогнозы при резком отклонении фактической погоды от прогноза, подсчёт оправдываемости прогнозов по элементам и в целом;
- система обработки, анализа и отображения авиаметеорологической информации для применения провайдерами метеорологической информации.


Погода в Мариуполе - сегодня

Время (UTC), дата Ветер
(°,м/с) 
Видим.   Явления Облачность Т
(°С)
Тd
(°С)
f(%) Тe
(°С)
Pmin
(гПа)
dP
(гПа)
Po
(мм)
O2
(г/м3)
Тmin Tmax R s Состояние
почвы
15 29.09.14 340 (С) 20000 м    ясно 
+18.4 +3.9 38 +20  1024.2  -0.3  762  287           
18 29.09.14 300 (СЗ) 20000 м    ясно 
+12.8 +8.3 74 +13  1024.6  0.3  762  292    +19.7       
21 29.09.14 280 (З) 20000 м    ясно 
+10.6 +9.4 92 +11  1024.5  -0.2  762  294           
00 30.09.14 270 (З) 20000 м    ясно 
+9.9 +9.1 95 +11  1023.5  -1             
03 30.09.14 260 (З) 20000 м    9/0 средняя 
[Ac trans]
+9.9 +8.9 94 +11  1023.1  -0.4  761  294           
06 30.09.14 тихо ()   20000 м    6/3 1000 м средняя 
[Cu hum|Ac trans]
+13.9 +10.2 78 +15  1022.7  -0.3  761  290  +8.5        мокрая 
09 30.09.14 170 (Ю) 20000 м    8/4 1000 м средняя 
[Cu hum|Ac trans]
+16.5 +14.2 86 +24  1021.4  -1.2  760  286         
12 30.09.14 220 (ЮЗ) 20000 м    9/8 600 м кучево-дожд., средняя 
[Cb cap|Ac trans]
+18 +12.4 70 +22  1019.4  -1.9  758  284         
15 30.09.14 250 (З) 20000 м    4/0 средняя, верхняя 
[Ac trans|Ci fib]
+16.7 +14.6 87 +24  1018.5  -1  758  285           
18 30.09.14 260 (З) 20000 м    8/0 верхняя 
[Cs]
+15.1 +14.7 97 +22  1018.5  758  286    +20.6       
21 30.09.14 280 (З) 20000 м    10/0 средняя 
[Ac und]
+14 +13.4 96 +20  1017.3  -1.2  757  287           
00 01.10.14 270 (З) 10 км    9/0 средняя, верхняя 
[Ac As|Cs]
+12.8 +12 95 +17  1016.9  -0.5  756  289           
03 01.10.14 280 (З) 10 км    10/0 верхняя 
[Cs]
+12.6 +9.8 83 +13  1017.1  0.2  757  290           
06 01.10.14 310 (СЗ) 10 км    9/0 средняя, верхняя 
[Ac As|Ci fib]
+14.5 +10.5 77 +17  1017.9  0.9  757  288  +11.7  -49.4      затоплена
водой 
09 01.10.14 330 (СЗ) 20000 м    3/0 верхняя 
[Ci fib]
+17.3 -2.6 26 +18  1018.9  758  287        497   
12 01.10.14 340 (С) 20000 м    3/1 1000 м верхняя 
[Cu hum|Ci fib]
+17.5 -5.9 20 +18  1019.7  0.8  759  288           
15 01.10.14 320 (СЗ) 20000 м    3/1 1000 м верхняя 
[Cu hum|Ci fib]
+15.2 -5.3 24 +15  1021.4  1.6  760  291      50   
18 01.10.14 320 (СЗ) 20000 м    ясно 
+10.6 +2.7 58 +11  1024.5  762  295    +18.2      мокрая 
21 01.10.14 330 (СЗ) 20000 м    ясно 
+8.1 +4.7 79 +7  1026.3  1.3  763  298           
00 02.10.14 330 (СЗ) 20000 м    ясно 
+5.2 +4.5 95 +5  1027.7  90.3             
03 02.10.14 330 (СЗ) 10 км    ясно 
+4.3 +3.3 93 +3    90.3             
06 02.10.14 360 (С) 10 км    ясно 
+7.7 +3.9 77 +7  1030.5  1.9  766  300  +3.8         
09 02.10.14 050 (СВ) 20000 м    3/3 1000 м 
[Cu hum]
+12.7 -3.8 31 +13  1030.4  766  296        598   
12 02.10.14 300 (СЗ) 20000 м    3/0 верхняя 
[Ci fib]
+13.6 -7.1 23 +14  1029.7  -0.7  766  295        598   
15 02.10.14 350 (С) 20000 м    3/0 верхняя 
[Ci fib]
+11.9 -7.9 24 +12  1029.8  0.1  766  297           
Время (UTC), дата Ветер
(°,м/с) 
Видим.   Явления Облачность Т
(°С)
Тd
(°С)
f(%) Тe
(°С)
Pmin
(гПа)
dP
(гПа)
Po
(мм)
O2
(г/м3)
Тmin Tmax R s Состояние
почвы

Для получения пояснительной информации подведите курсор к названию столбца.

ПОГОДА в Мариуполе - архив

Всё, что Вы хотите узнать о погоде в Мариуполе - удобно и подробно!

Выберите нужную дату (начиная с 1 января 2013* года) и нажмите кнопку "Найти".
Будут отображены архивные сводки погоды по пункту Мариуполь, начиная с указанной даты.


Отображать данные в формате CSV (для использования в таблицах Excel)


Внимание! Наш архив погоды предназначен исключительно для личного некоммерческого использования в познавательных целях. Если Вам необходимы официальные справки о состоянии погоды (для производственных, юридических, коммерческих и т.п. целей), обращайтесь в органы Росгидромета.

*Примечание: данная дата относится к архиву по метеостанциям СССР (Россия, СНГ, Балтия).
Архив по метеостанциям Зарубежной Европы и Азии (кроме Китая) хранится 10 дней, по другим регионам земного шара (Китай, Африка, Америка, Австралия, Океания) - 1 день.

Мариуполь - район местоположения метеостанции


Название, широта, долгота, высота метеостанции:
Мариуполь (город) 47°ш. 37.5°д. 70 м над ур. моря [Украина]

Дополнительная информация

В oтличие oт бoльшинства пoгoдных сайтoв мы публикуем пoдрoбную метеoинфoрмацию в детальнoм прoфессиoнальнoм фoрмате.

Характеристики температуры и влажнoсти вoздуха измеряются на высoте 2 м в тени вдали oт зданий и деревьев.
Скoрoсть ветра измеряется на высoте 10 м (на урoвне рoста челoвека скoрoсть ветра ниже в 1.5-2 раза). Если метеoстанция нахoдится в гoрoде или в лесу, тo скoрoсть ветра занижена на 2-4 м/с пo сравнению с oткрытым местoм. Скoрoсть ветра над акватoриями крупных рек и oзёр, а также на вершинах хoлмoв на 2-5 м/с выше, чем в oбычных услoвиях.
Атмoсфернoе давление в разных тoчках местнoсти мoжет значительнo oтличаться oт давления на метеoстанции, в зависимoсти oт услoвий рельефа (при пoдъёме на 10 м давление пoнижается примернo на 1 мм рт.ст.).